Location: Newark
(34.6283°N, 36.0776°E)
Time: 05:47:00
(UTC+00:00)

Courier 1B Rocket - Pass Details

Date: 22 September 2019
Orbit: 920 x 1202 km, 28.2° (Epoch: 21 October)

Event Time Altitude Azimuth Distance (km) Brightness Sun altitude
Rises 16:38:47 0° 269° (W) 3,864 9.9 -14.3°
Reaches altitude 10° 16:41:57 10° 259° (WSW) 2,858 8.6 -14.9°
Maximum altitude 16:47:47 30° 201° (SSW) 1,721 6.4 -16.1°
Enters shadow 16:52:26 14° 147° (SSE) 2,440 6.7 -17.0°
